time_stamp(utc),avg(mph),gust(mph),direction(deg),12m_air_temp(f),sonic_u(cm/s),sonic_v(cm/s),sonic_w(cm/s),pressure,2m_air_temp(f),pyranometer(W/m^2)
"2021-01-13 00:02:39+00",1.6,1.6,,38.8,-17,61,-8,1019.23,35.9,0
"2021-01-13 00:07:39+00",1.6,1.6,,38.7,-29,52,-2,1019.25,35.7,0
"2021-01-13 00:12:39+00",2.4,2.4,,38.8,-72,65,4,1019.36,35.7,0
"2021-01-13 00:17:39+00",2.9,2.9,,38.8,-118,34,-3,1019.31,35.5,0
"2021-01-13 00:22:39+00",3.8,3.8,,38.5,-164,28,-1,1019.37,35.4,0
"2021-01-13 00:27:39+00",4.3,5.3,,37.8,-188,24,8,1019.44,35.2,0
"2021-01-13 00:32:39+00",5.8,5.8,,37.3,-260,19,10,1019.47,34.9,0
"2021-01-13 00:37:39+00",5.8,5.8,,37.2,-259,27,16,1019.55,34.6,0
"2021-01-13 00:42:39+00",5.5,5.5,,36.9,-246,18,12,1019.55,34.3,0
"2021-01-13 00:47:39+00",5.3,5.3,,37,-231,45,11,1019.53,34.3,0
"2021-01-13 00:52:39+00",5.1,6.1,,37.1,-224,37,11,1019.65,34.4,0
"2021-01-13 00:57:39+00",4.9,5.9,,36.9,-209,44,11,1019.64,34.4,0
"2021-01-13 01:02:39+00",5.3,7.3,,36.4,-225,68,17,1019.63,34.3,0
"2021-01-13 01:07:39+00",7.7,8.7,,36.4,-329,89,11,1019.61,34.3,0
"2021-01-13 01:12:39+00",7.0,8.0,,37.2,-284,138,12,1019.65,34.2,0
"2021-01-13 01:17:39+00",7.6,8.6,,37.3,-308,150,15,1019.67,34.1,0
"2021-01-13 01:22:39+00",7.9,8.9,,37.2,-315,151,13,1019.66,34.1,0
"2021-01-13 01:27:39+00",8.3,9.3,,37.2,-334,168,6,1019.66,34.1,0
"2021-01-13 01:32:39+00",8.0,9.0,,37.1,-328,160,14,1019.78,34.2,0
"2021-01-13 01:37:39+00",7.3,8.3,,36.9,-300,138,17,1019.76,34.2,0
"2021-01-13 01:42:39+00",8.0,10.0,,36.8,-335,131,8,1019.71,34.2,0
"2021-01-13 01:47:39+00",8.2,9.2,,36.7,-354,112,11,1019.76,34.2,0
"2021-01-13 01:52:39+00",8.8,9.8,,36.6,-377,130,21,1019.69,34.2,0
"2021-01-13 01:57:39+00",10.7,12.7,,36.6,-461,162,12,1019.67,34.4,0
"2021-01-13 02:02:39+00",9.0,10.0,,36.2,-383,135,20,1019.58,34.5,0
"2021-01-13 02:07:39+00",8.8,9.8,,36.1,-374,134,14,1019.55,34.5,0
"2021-01-13 02:12:39+00",9.0,10.0,,36.1,-374,157,26,1019.59,34.5,0
"2021-01-13 02:17:39+00",9.3,10.3,,36,-384,153,13,1019.72,34.4,0
"2021-01-13 02:22:39+00",9.6,10.6,,35.9,-403,133,20,1019.67,34.3,0
"2021-01-13 02:27:39+00",10.4,12.4,,35.9,-446,152,9,1019.79,34.4,0
"2021-01-13 02:32:39+00",11.0,13.0,,35.6,-467,197,14,1019.85,34.3,0
"2021-01-13 02:37:39+00",12.4,14.4,,35.3,-508,276,13,1019.79,34.2,0
"2021-01-13 02:42:39+00",10.1,12.1,,35,-408,216,14,1019.81,34,0
"2021-01-13 02:47:39+00",10.3,11.3,,34.8,-411,222,23,1019.87,33.9,0
"2021-01-13 02:52:39+00",9.2,10.2,,34.6,-370,180,21,1019.89,33.6,0
"2021-01-13 02:57:39+00",9.5,11.5,,34.5,-400,171,12,1019.82,33.5,0
"2021-01-13 03:02:39+00",9.7,10.7,,34.6,-397,188,10,1019.85,33.4,0
"2021-01-13 03:07:39+00",10.7,11.7,,34.6,-447,198,11,1019.92,33.3,0
"2021-01-13 03:12:39+00",8.3,9.3,,34.5,-331,163,15,1019.96,33.3,0
"2021-01-13 03:17:39+00",10.3,11.3,,34.5,-410,219,16,1019.99,33.2,0
"2021-01-13 03:22:39+00",9.8,10.8,,34.4,-392,191,20,1019.92,33.1,0
"2021-01-13 03:27:39+00",9.4,10.4,,34.4,-385,187,18,1019.98,33.1,0
"2021-01-13 03:32:39+00",9.5,10.5,,34.2,-392,178,16,1019.93,33,0
"2021-01-13 03:37:39+00",9.5,10.5,,34.3,-388,186,13,1019.94,33,0
"2021-01-13 03:42:39+00",9.4,10.4,,34.3,-386,165,15,1020.01,32.9,0
"2021-01-13 03:47:39+00",9.7,10.7,,34.2,-399,178,11,1019.93,32.9,0
"2021-01-13 03:52:39+00",8.6,9.6,,34.2,-378,125,14,1019.89,32.9,0
"2021-01-13 03:57:39+00",9.1,10.1,,34.3,-390,139,13,1019.82,32.8,0
"2021-01-13 04:02:39+00",8.6,9.6,,34.4,-339,156,14,1019.85,32.8,0
"2021-01-13 04:07:39+00",8.0,9.0,,34.3,-338,126,15,1019.87,32.8,0
"2021-01-13 04:12:39+00",8.8,9.8,,34.3,-366,156,16,1019.91,32.8,0
"2021-01-13 04:17:39+00",8.2,9.2,,34.3,-343,134,8,1019.75,32.7,0
"2021-01-13 04:22:39+00",8.6,10.6,,34.1,-349,171,4,1019.81,32.6,0
"2021-01-13 04:27:39+00",8.0,9.0,,34.1,-324,174,10,1019.81,32.5,0
"2021-01-13 04:32:39+00",8.5,9.5,,34,-336,189,15,1019.8,32.5,0
"2021-01-13 04:37:39+00",8.9,9.9,,33.9,-345,197,9,1019.75,32.5,0
"2021-01-13 04:42:39+00",8.2,9.2,,33.8,-321,181,10,1019.63,32.4,0
"2021-01-13 04:47:39+00",8.8,9.8,,33.7,-352,174,14,1019.59,32.4,0
"2021-01-13 04:52:39+00",9.7,10.7,,33.7,-411,159,15,1019.56,32.3,0
"2021-01-13 04:57:39+00",7.3,8.3,,33.7,-299,145,11,1019.49,32.2,0
"2021-01-13 05:02:39+00",8.3,10.3,,33.7,-302,197,0,1019.4,32.1,0
"2021-01-13 05:07:39+00",7.4,9.4,,33.9,-280,185,28,1019.41,32.2,0
"2021-01-13 05:12:39+00",6.3,7.3,,33.9,-240,151,14,1019.37,32.2,0
"2021-01-13 05:17:39+00",7.2,7.2,,34,-258,189,11,1019.24,32.2,0
"2021-01-13 05:22:39+00",7.6,8.6,,34,-275,200,19,1019.29,32.2,0
"2021-01-13 05:27:39+00",8.1,9.1,,33.9,-284,228,15,1019.31,32.3,0
"2021-01-13 05:32:39+00",8.0,9.0,,33.7,-291,217,15,1019.3,32.4,0
"2021-01-13 05:37:39+00",8.2,10.2,,33.5,-264,251,11,1019.21,32.4,0
"2021-01-13 05:42:39+00",9.1,10.1,,33.4,-312,266,18,1019.28,32.2,0
"2021-01-13 05:47:39+00",8.9,9.9,,33.2,-307,250,24,1019.16,32.2,0
"2021-01-13 05:52:39+00",8.2,9.2,,33.1,-284,236,17,1019.16,32.1,0
"2021-01-13 05:57:39+00",7.3,9.3,,33,-261,215,12,1019.09,32,0
"2021-01-13 06:02:39+00",8.3,9.3,,33.1,-298,229,15,1019.13,31.9,0
"2021-01-13 06:07:39+00",7.6,9.6,,33,-287,189,5,1019.17,31.8,0
"2021-01-13 06:12:39+00",6.0,7.0,,33,-234,125,14,1019.21,31.7,0
"2021-01-13 06:17:39+00",5.8,6.8,,32.9,-253,79,11,1019.16,31.5,0
"2021-01-13 06:22:39+00",6.0,7.0,,32.9,-257,70,7,1019.18,31.3,0
"2021-01-13 06:27:39+00",6.8,7.8,,32.9,-274,119,6,1019.2,31.2,0
"2021-01-13 06:32:39+00",7.1,8.1,,33,-304,70,-6,1019.24,31.2,0
"2021-01-13 06:37:39+00",7.3,8.3,,33.1,-309,129,23,1019.31,31.2,0
"2021-01-13 06:42:39+00",6.5,8.5,,33.1,-268,63,9,1019.31,31.2,0
"2021-01-13 06:47:39+00",7.3,8.3,,32.9,-325,52,11,1019.27,31.2,0
"2021-01-13 06:52:39+00",8.0,8.0,,32.9,-358,39,7,1019.38,31.2,0
"2021-01-13 06:57:39+00",8.3,9.3,,33,-358,119,7,1019.39,31.2,0
"2021-01-13 07:02:39+00",8.0,9.0,,33.2,-336,106,12,1019.39,31.3,0
"2021-01-13 07:07:39+00",8.8,9.8,,33.3,-369,105,10,1019.49,31.3,0
"2021-01-13 07:12:39+00",9.0,10.0,,33.3,-378,151,9,1019.51,31.4,0
"2021-01-13 07:17:39+00",8.6,9.6,,33.4,-349,157,15,1019.6,31.4,0
"2021-01-13 07:22:39+00",9.5,10.5,,33.5,-413,133,15,1019.63,31.4,0
"2021-01-13 07:27:39+00",8.6,9.6,,33.4,-384,80,19,1019.62,31.5,0
"2021-01-13 07:32:39+00",8.9,9.9,,33.2,-396,84,11,1019.5,31.7,0
"2021-01-13 07:37:39+00",8.6,9.6,,33,-371,80,10,1019.55,31.7,0
"2021-01-13 07:42:39+00",8.4,8.4,,33,-358,123,13,1019.44,31.6,0
"2021-01-13 07:47:39+00",9.4,10.4,,33,-399,150,21,1019.37,31.5,0
"2021-01-13 07:52:39+00",9.5,10.5,,33,-411,134,18,1019.34,31.4,0
"2021-01-13 07:57:39+00",9.5,10.5,,33,-420,125,14,1019.33,31.3,0
"2021-01-13 08:02:39+00",9.4,10.4,,33,-403,111,7,1019.23,31.4,0
"2021-01-13 08:07:39+00",9.6,10.6,,32.9,-412,104,18,1019.2,31.4,0
"2021-01-13 08:12:39+00",8.7,9.7,,32.9,-372,94,13,1019.16,31.5,0
"2021-01-13 08:17:39+00",8.5,9.5,,32.8,-373,79,19,1019.18,31.5,0
"2021-01-13 08:22:39+00",7.8,8.8,,32.6,-344,81,6,1019.13,31.4,0
"2021-01-13 08:27:39+00",7.5,8.5,,32.6,-324,85,16,1019.11,31.3,0
"2021-01-13 08:32:39+00",7.1,8.1,,32.5,-302,95,22,1019.03,31.2,0
"2021-01-13 08:37:39+00",6.5,7.5,,32.5,-275,86,4,1019.1,31.1,0
"2021-01-13 08:42:39+00",7.2,8.2,,32.6,-304,84,5,1018.99,30.9,0
"2021-01-13 08:47:39+00",5.7,6.7,,32.6,-254,40,15,1019.05,30.9,0
"2021-01-13 08:52:39+00",6.3,7.3,,32.6,-264,61,6,1019.06,30.9,0
"2021-01-13 08:57:39+00",7.1,8.1,,32.7,-300,77,9,1018.99,30.8,0
"2021-01-13 09:02:39+00",7.8,8.8,,32.6,-340,92,10,1019.05,30.9,0
"2021-01-13 09:07:39+00",8.2,10.2,,32.5,-351,86,17,1019.14,30.9,0
"2021-01-13 09:12:39+00",8.3,9.3,,32.5,-369,83,15,1019.13,31,0
"2021-01-13 09:17:39+00",8.2,9.2,,32.6,-361,89,13,1019.09,31.1,0
"2021-01-13 09:22:39+00",8.0,9.0,,32.7,-353,79,21,1019.23,31.3,0
"2021-01-13 09:27:39+00",6.8,7.8,,32.9,-291,87,14,1019.13,31.5,0
"2021-01-13 09:32:39+00",6.8,7.8,,33,-286,100,13,1019.18,31.6,0
"2021-01-13 09:37:39+00",6.5,7.5,,33,-256,116,4,1019.22,31.4,0
"2021-01-13 09:42:39+00",7.9,8.9,,33.1,-310,164,6,1019.22,31.3,0
"2021-01-13 09:47:39+00",8.3,9.3,,33.3,-345,156,12,1019.22,31.2,0
"2021-01-13 09:52:39+00",6.4,7.4,,33.3,-270,96,12,1019.15,31.1,0
"2021-01-13 09:57:39+00",6.4,6.4,,33.1,-271,91,12,1019.12,31.1,0
"2021-01-13 10:02:39+00",4.3,5.3,,32.8,-178,52,5,1019.2,31,0
"2021-01-13 10:07:39+00",5.8,6.8,,32.9,-236,105,7,1019.16,30.9,0
"2021-01-13 10:12:39+00",5.6,6.6,,33.1,-215,123,5,1019.18,30.8,0
"2021-01-13 10:17:39+00",6.9,7.9,,33.1,-259,176,10,1019.27,30.8,0
"2021-01-13 10:22:39+00",6.5,7.5,,33.2,-239,167,13,1019.27,30.8,0
"2021-01-13 10:27:39+00",6.2,7.2,,33.2,-208,176,8,1019.29,31,0
"2021-01-13 10:32:39+00",7.1,8.1,,33.2,-249,194,13,1019.37,31,0
"2021-01-13 10:37:39+00",6.8,6.8,,33.3,-237,173,15,1019.31,31.2,0
"2021-01-13 10:42:39+00",6.9,7.9,,33.3,-244,180,16,1019.26,31.3,0
"2021-01-13 10:47:39+00",5.9,6.9,,33.3,-198,152,11,1019.31,31.4,0
"2021-01-13 10:52:39+00",6.0,7.0,,33.3,-230,146,13,1019.35,31.4,0
"2021-01-13 10:57:39+00",6.4,7.4,,33.3,-259,134,9,1019.44,31.4,0
"2021-01-13 11:02:39+00",6.2,6.2,,33.4,-243,137,9,1019.51,31.3,0
"2021-01-13 11:07:39+00",6.4,7.4,,33.3,-237,149,10,1019.42,31.2,0
"2021-01-13 11:12:39+00",6.5,6.5,,33.3,-265,122,8,1019.5,31.2,0
"2021-01-13 11:17:39+00",6.2,7.2,,33.4,-266,87,10,1019.51,31.2,0
"2021-01-13 11:22:39+00",3.7,4.7,,33.3,-163,11,1,1019.56,31.3,0
"2021-01-13 11:27:39+00",5.0,6.0,,33.1,-217,-14,1,1019.64,31.3,0
"2021-01-13 11:32:39+00",5.9,6.9,,32.9,-258,-29,6,1019.68,31,0
"2021-01-13 11:37:39+00",5.8,5.8,,32.9,-245,-57,7,1019.7,30.9,0
"2021-01-13 11:42:39+00",6.8,6.8,,32.9,-291,-43,2,1019.67,30.8,0
"2021-01-13 11:47:39+00",6.6,6.6,,32.8,-291,18,6,1019.7,30.9,0
"2021-01-13 11:52:39+00",5.2,6.2,,32.8,-229,39,18,1019.61,31.1,0
"2021-01-13 11:57:39+00",5.0,6.0,,32.6,-216,-1,2,1019.6,31.2,0
"2021-01-13 12:02:39+00",5.1,6.1,,32.5,-222,-11,6,1019.51,31.1,0
"2021-01-13 12:07:39+00",5.5,6.5,,32.4,-240,-19,6,1019.49,31.1,0
"2021-01-13 12:12:39+00",5.5,5.5,,32.3,-240,-15,6,1019.54,31,0
"2021-01-13 12:17:39+00",6.1,6.1,,32.4,-267,-13,7,1019.6,31,0
"2021-01-13 12:22:39+00",5.9,5.9,,32.5,-265,24,15,1019.54,31.2,0
"2021-01-13 12:27:39+00",4.9,4.9,,32.8,-211,21,7,1019.48,31.4,0
"2021-01-13 12:32:39+00",4.4,4.4,,32.9,-193,7,5,1019.4,31.6,0
"2021-01-13 12:37:39+00",4.6,5.6,,33,-202,-4,2,1019.43,31.8,0
"2021-01-13 12:42:39+00",5.4,5.4,,33.1,-237,8,5,1019.43,32,0
"2021-01-13 12:47:39+00",5.0,5.0,,33.3,-212,-27,5,1019.37,32.4,0
"2021-01-13 12:52:39+00",4.8,4.8,,33.6,-205,-17,1,1019.34,33,0
"2021-01-13 12:57:39+00",5.6,6.6,,33.8,-244,-27,2,1019.4,33.6,0
"2021-01-13 13:02:39+00",5.5,6.5,,33.9,-235,-15,5,1019.35,34.2,0
"2021-01-13 13:07:39+00",5.2,5.2,,34,-222,-6,12,1019.44,34.6,0
"2021-01-13 13:12:39+00",4.9,4.9,,34.1,-211,-8,-3,1019.44,34.7,0
"2021-01-13 13:17:39+00",4.3,4.3,,34.2,-174,-39,8,1019.33,34.9,0
"2021-01-13 13:22:39+00",3.8,3.8,,34.4,-158,-11,9,1019.43,35.3,0
"2021-01-13 13:27:39+00",4.6,5.6,,34.6,-186,-43,-7,1019.4,35.7,0
"2021-01-13 13:32:39+00",4.1,5.1,,34.9,-166,-41,-7,1019.38,36.5,0
"2021-01-13 13:37:39+00",3.8,3.8,,35.2,-153,-46,18,1019.35,37.6,0
"2021-01-13 13:42:39+00",5.8,6.8,,35.5,-242,-64,9,1019.34,38.8,0
"2021-01-13 13:47:39+00",5.0,6.0,,35.7,-200,-52,15,1019.45,39.8,0
"2021-01-13 13:52:39+00",4.8,5.8,,35.9,-183,-57,17,1019.37,40.9,0
"2021-01-13 13:57:39+00",5.0,6.0,,36.2,-199,-90,-5,1019.37,41.8,0
"2021-01-13 14:02:39+00",5.4,6.4,,36.5,-219,-123,-8,1019.44,42.3,0
"2021-01-13 14:07:39+00",6.3,7.3,,36.8,-253,-131,5,1019.36,42.7,0
"2021-01-13 14:12:39+00",5.4,6.4,,37.1,-189,-146,4,1019.24,42.7,0
"2021-01-13 14:17:39+00",5.9,6.9,,37.2,-209,-159,1,1019.25,42.6,0
"2021-01-13 14:22:39+00",6.1,7.1,,37.3,-231,-146,11,1019.26,42.7,0
"2021-01-13 14:27:39+00",6.6,7.6,,37.3,-254,-165,5,1019.24,42.7,0
"2021-01-13 14:32:39+00",7.2,8.2,,37.5,-261,-186,-1,1019.2,42.9,0
"2021-01-13 14:37:39+00",7.1,8.1,,37.5,-216,-208,9,1019.24,42.4,0
"2021-01-13 14:42:39+00",7.2,8.2,,37.5,-236,-204,0,1019.14,42.5,0
"2021-01-13 14:47:39+00",6.8,7.8,,37.6,-283,-168,10,1019.1,42.5,0
"2021-01-13 14:52:39+00",8.6,10.6,,37.8,-300,-238,19,1019.01,42.7,0
"2021-01-13 14:57:39+00",9.6,10.6,,37.7,-299,-295,2,1018.97,42.4,0
"2021-01-13 15:02:39+00",10.6,12.6,,37.5,-330,-319,-6,1018.91,42,0
"2021-01-13 15:07:39+00",10.0,11.0,,37.7,-298,-324,3,1018.81,41.6,0
"2021-01-13 15:12:39+00",9.9,10.9,,37.9,-321,-287,3,1018.79,41.5,0
"2021-01-13 15:17:39+00",9.8,10.8,,38.3,-306,-289,11,1018.78,41.5,0
"2021-01-13 15:22:39+00",9.0,10.0,,38.6,-310,-257,17,1018.66,41.8,0
"2021-01-13 15:27:39+00",9.2,11.2,,38.7,-339,-243,-7,1018.52,42.4,0
"2021-01-13 15:32:39+00",8.3,10.3,,38.9,-330,-210,8,1018.36,42.6,0
"2021-01-13 15:37:39+00",8.6,11.6,,39.3,-362,-80,34,1018.26,43.4,0
"2021-01-13 15:42:39+00",10.5,11.5,,39.4,-450,148,19,1018.15,43.9,0
"2021-01-13 15:47:39+00",8.5,9.5,,39.4,-352,108,39,1017.99,44.3,0
"2021-01-13 15:52:39+00",10.0,11.0,,39.5,-432,123,1,1017.94,44.5,0
"2021-01-13 15:57:39+00",8.4,9.4,,39.5,-361,107,0,1017.83,44.5,0
"2021-01-13 16:02:39+00",8.8,9.8,,39.6,-368,126,6,1017.7,44.7,0
"2021-01-13 16:07:39+00",9.5,10.5,,39.7,-405,121,5,1017.66,44.6,0
"2021-01-13 16:12:39+00",9.1,10.1,,39.6,-400,85,8,1017.48,44.5,0
"2021-01-13 16:17:39+00",10.9,12.9,,39.9,-460,169,23,1017.42,44.7,0
"2021-01-13 16:22:39+00",12.6,14.6,,40.2,-535,175,7,1017.32,44.7,0
"2021-01-13 16:27:39+00",11.2,13.2,,40.3,-469,180,38,1017.14,44.4,0
"2021-01-13 16:32:39+00",10.2,12.2,,40.5,-425,178,27,1017.11,44.4,0
"2021-01-13 16:37:39+00",12.1,14.1,,40.6,-493,203,24,1016.99,44.3,0
"2021-01-13 16:42:39+00",12.8,14.8,,40.7,-525,244,29,1016.91,44.3,0
"2021-01-13 16:47:39+00",11.7,13.7,,40.9,-484,212,11,1016.85,44.4,0
"2021-01-13 16:52:39+00",13.4,15.4,,41,-580,172,32,1016.76,44.4,0
"2021-01-13 16:57:39+00",13.2,16.2,,41.2,-542,278,26,1016.75,44.3,0
"2021-01-13 17:02:39+00",12.1,15.1,,41.1,-501,238,41,1016.61,44.1,0
"2021-01-13 17:07:39+00",11.4,13.4,,40.9,-449,253,23,1016.54,43.8,0
"2021-01-13 17:12:39+00",12.2,15.2,,41,-514,240,43,1016.42,43.8,0
"2021-01-13 17:17:39+00",11.8,12.8,,41,-483,238,37,1016.38,43.7,0
"2021-01-13 17:22:39+00",11.9,13.9,,41.2,-494,208,21,1016.32,43.9,0
"2021-01-13 17:27:39+00",11.9,13.9,,41.1,-470,263,28,1016.18,44.2,0
"2021-01-13 17:32:39+00",11.0,13.0,,41.4,-451,251,36,1016.1,44.4,0
"2021-01-13 17:37:39+00",11.8,14.8,,41.7,-452,230,65,1016.09,44.6,0
"2021-01-13 17:42:39+00",11.2,12.2,,41.5,-451,245,6,1015.9,44.5,0
"2021-01-13 17:47:39+00",10.1,12.1,,41.8,-413,189,21,1015.82,44.8,0
"2021-01-13 17:52:39+00",11.0,13.0,,41.7,-443,223,29,1015.82,45,0
"2021-01-13 17:57:39+00",9.3,10.3,,41.8,-403,127,12,1015.72,45.2,0
"2021-01-13 18:02:39+00",8.5,10.5,,42.1,-347,152,61,1015.66,45.6,0
"2021-01-13 18:07:39+00",9.5,10.5,,42.1,-396,166,17,1015.55,45.6,0
"2021-01-13 18:12:39+00",8.0,10.0,,42.4,-290,184,46,1015.43,45.8,0
"2021-01-13 18:17:39+00",9.2,10.2,,42.1,-354,216,18,1015.36,45.6,0
"2021-01-13 18:22:39+00",9.0,10.0,,42.2,-347,191,-7,1015.35,45.5,0
"2021-01-13 18:27:39+00",7.8,9.8,,42.5,-271,196,42,1015.28,45.6,0
"2021-01-13 18:32:39+00",7.8,9.8,,42.5,-303,166,-8,1015.26,45.7,0
"2021-01-13 18:37:39+00",6.9,8.9,,42.8,-298,68,26,1015.21,46,0
"2021-01-13 18:42:39+00",5.3,7.3,,42.8,-177,105,54,1015.09,46.8,0
"2021-01-13 18:47:39+00",5.6,6.6,,43,-219,104,15,1014.99,47,0
"2021-01-13 18:52:39+00",6.2,8.2,,43.2,-236,133,33,1014.95,47,0
"2021-01-13 18:57:39+00",5.3,6.3,,43.3,-215,71,3,1014.85,47.2,0
"2021-01-13 19:02:39+00",6.5,7.5,,43.5,-266,129,20,1014.77,47.5,0
"2021-01-13 19:07:39+00",6.7,7.7,,43.6,-255,167,9,1014.73,47.5,0
"2021-01-13 19:12:39+00",5.3,6.3,,43.7,-207,125,38,1014.75,47.4,0
"2021-01-13 19:17:39+00",4.0,5.0,,44,-133,70,52,1014.7,47.9,0
"2021-01-13 19:22:39+00",2.7,3.7,,44.5,-54,-94,16,1014.56,47.7,0
"2021-01-13 19:27:39+00",3.7,4.7,,44.6,-83,-112,-22,1014.54,47.9,0
"2021-01-13 19:32:39+00",4.6,6.6,,45.1,-139,-135,-2,1014.5,48.4,0
"2021-01-13 19:37:39+00",5.8,8.8,,45.2,-51,-230,-7,1014.46,47.7,0
"2021-01-13 19:42:39+00",7.0,8.0,,45.1,-200,-252,18,1014.44,47.5,0
"2021-01-13 19:47:39+00",5.9,7.9,,45.1,-216,-147,15,1014.48,47.7,0
"2021-01-13 19:52:39+00",8.9,9.9,,45.1,-370,-94,17,1014.42,48.3,0
"2021-01-13 19:57:39+00",9.4,11.4,,45,-362,-246,6,1014.38,48.8,0
"2021-01-13 20:02:39+00",7.3,8.3,,45,-294,-124,10,1014.37,48.7,0
"2021-01-13 20:07:39+00",7.7,9.7,,45.1,-308,-141,12,1014.37,49.1,0
"2021-01-13 20:12:39+00",8.0,9.0,,44.9,-300,-210,2,1014.4,48.8,0
"2021-01-13 20:17:39+00",11.8,13.8,,43.9,-235,-473,-8,1014.35,46.8,0
"2021-01-13 20:22:39+00",9.9,12.9,,43.3,-128,-404,5,1014.37,45.2,0
"2021-01-13 20:27:39+00",9.5,12.5,,43.1,-73,-403,-7,1014.44,44.2,0
"2021-01-13 20:32:39+00",11.5,13.5,,43.2,-133,-480,-6,1014.43,43.9,0
"2021-01-13 20:37:39+00",10.2,12.2,,43.1,-186,-413,3,1014.56,43.8,0
"2021-01-13 20:42:39+00",9.5,11.5,,43.1,-147,-387,2,1014.6,43.7,0
"2021-01-13 20:47:39+00",11.6,12.6,,43,-219,-469,5,1014.52,43.6,0
"2021-01-13 20:52:39+00",10.1,12.1,,42.8,-131,-407,4,1014.49,43.3,0
"2021-01-13 20:57:39+00",8.8,9.8,,42.9,-97,-369,6,1014.55,43.2,0
"2021-01-13 21:02:39+00",7.6,10.6,,43,-80,-317,11,1014.48,43.1,0
"2021-01-13 21:07:39+00",9.5,10.5,,43,-155,-380,1,1014.58,43,0
"2021-01-13 21:12:39+00",8.7,10.7,,42.8,-74,-361,-9,1014.51,42.9,0
"2021-01-13 21:17:39+00",8.2,11.2,,42.7,-99,-337,-5,1014.47,42.8,0
"2021-01-13 21:22:39+00",7.9,10.9,,42.7,-87,-326,-9,1014.57,42.6,0
"2021-01-13 21:27:39+00",7.1,9.1,,42.5,-68,-285,4,1014.44,42.3,0
"2021-01-13 21:32:39+00",8.0,10.0,,42.3,-74,-328,-10,1014.47,42,0
"2021-01-13 21:37:39+00",6.4,8.4,,42,-50,-287,-4,1014.41,41.7,0
"2021-01-13 21:42:39+00",7.8,9.8,,41.7,-72,-334,-7,1014.4,41.4,0
"2021-01-13 21:47:39+00",8.4,10.4,,41.4,-61,-351,9,1014.41,41,0
"2021-01-13 21:52:39+00",8.5,10.5,,41.1,-65,-368,-10,1014.48,40.6,0
"2021-01-13 21:57:39+00",8.6,10.6,,40.9,-42,-351,-8,1014.52,40.3,0
"2021-01-13 22:02:39+00",9.0,11.0,,40.8,-56,-376,-2,1014.54,40.2,0
"2021-01-13 22:07:39+00",9.4,11.4,,40.6,-102,-383,-9,1014.59,39.9,0
"2021-01-13 22:12:39+00",10.4,10.4,,40.8,-198,-418,-7,1014.62,39.7,0
"2021-01-13 22:17:39+00",8.9,9.9,,40.7,-165,-354,-7,1014.59,39.4,0
"2021-01-13 22:22:39+00",9.8,11.8,,40.3,-162,-403,0,1014.61,39.2,0
"2021-01-13 22:27:39+00",10.5,13.5,,39.9,-122,-439,-2,1014.58,39,0
"2021-01-13 22:32:39+00",11.2,12.2,,40,-185,-462,1,1014.58,38.9,0
"2021-01-13 22:37:39+00",11.5,13.5,,40.1,-215,-460,-5,1014.55,38.9,0
"2021-01-13 22:42:39+00",10.8,11.8,,39.9,-191,-440,-1,1014.65,38.8,0
"2021-01-13 22:47:39+00",10.7,12.7,,39.8,-177,-427,-3,1014.74,38.7,0
"2021-01-13 22:52:39+00",9.5,10.5,,39.7,-177,-379,-2,1014.77,38.6,0
"2021-01-13 22:57:39+00",9.2,11.2,,39.6,-170,-372,-3,1014.7,38.4,0
"2021-01-13 23:02:39+00",8.6,10.6,,39.7,-161,-344,1,1014.71,38.4,0
"2021-01-13 23:07:39+00",8.8,10.8,,39.8,-147,-361,-1,1014.72,38.3,0
"2021-01-13 23:12:39+00",9.6,10.6,,39.8,-176,-380,-4,1014.73,38.3,0
"2021-01-13 23:17:39+00",9.3,10.3,,39.7,-175,-375,-1,1014.75,38.2,0
"2021-01-13 23:22:39+00",9.1,9.1,,39.8,-170,-360,0,1014.79,38.1,0
"2021-01-13 23:27:39+00",9.0,10.0,,39.7,-158,-360,-6,1014.74,38,0
"2021-01-13 23:32:39+00",9.3,10.3,,39.9,-150,-373,-6,1014.82,37.9,0
"2021-01-13 23:37:39+00",8.3,9.3,,40.2,-154,-328,-3,1014.9,37.8,0
"2021-01-13 23:42:39+00",9.6,10.6,,39.9,-126,-394,-8,1014.78,37.7,0
"2021-01-13 23:47:39+00",9.6,11.6,,39.7,-151,-382,-5,1014.84,37.5,0
"2021-01-13 23:52:39+00",8.9,9.9,,39.1,-113,-364,-2,1014.85,37.4,0
"2021-01-13 23:57:39+00",8.0,9.0,,39.4,-108,-322,-8,1014.78,37.4,0
